Location: Newark
(45.5167°N, 11.1667°E)
Time: 04:21:44
(UTC+00:00)

ISS - Pass Details

Date: 12 November 2019
Orbit: 411 x 421 km, 51.6° (Epoch: 14 December)

Event Time Altitude Azimuth Distance (km) Brightness Sun altitude
Exits shadow 03:57:52 31° 151° (SSE) 766 -2.2 -23.1°
Drops below altitude 10° 03:59:51 10° 136° (SE) 1,502 -0.4 -22.8°
Sets 04:01:57 0° 132° (SE) 2,361 0.8 -22.4°
